Location: Tierz
(42.1336°N, 0.3549°W)
Time: 06:18:56
(UTC+00:00)

Cosmos 1340 - Pass Details

Date: 29 October 2020
Orbit: 501 x 504 km, 81.2° (Epoch: 26 November)

Event Time Altitude Azimuth Distance (km) Brightness Sun altitude
Rises 17:21:46 0° 0° (N) 2,615 6.1 -5.0°
Reaches altitude 10° 17:24:07 10° 12° (NNE) 1,725 5.1 -5.4°
Maximum altitude 17:27:26 29° 74° (ENE) 956 3.5 -6.0°
Drops below altitude 10° 17:30:45 10° 136° (SE) 1,713 5.0 -6.6°
Sets 17:33:04 0° 147° (SSE) 2,593 6.0 -7.0°
